Elko, NV

8:09 AM PDT on April 29, 2017 (GMT -0700)
Elko Regional

Weather History for KEKO - March, 2013

Change the Weather History Date:

Thursday, March 28, 2013

  Actual Average Record
Temperature  
Mean Temperature 48 °F 42 °F  
Max Temperature 65 °F 55 °F 75 °F (1986)
Min Temperature 30 °F 28 °F 7 °F (1944)
Degree Days  
Heating Degree Days 17 23  
Month to date heating degree days 683 741  
Since 1 July heating degree days 5744 5909  
Cooling Degree Days 0 0  
Month to date cooling degree days 0 0  
Year to date cooling degree days 0 0  
Moisture  
Dew Point 29 °F    
Average Humidity 54    
Maximum Humidity 82    
Minimum Humidity 25    
Precipitation  
Precipitation 0.00 in 0.04 in 0.40 in (1963)
Month to date precipitation 0.36 0.91  
Year to date precipitation 1.61 2.87  
Snow  
Snow 0.00 in 0.10 in 7.40 in (1998)
Month to date snowfall 2.6 4.6  
Since 1 July snowfall 40.9 37.1  
Snow Depth 0.00 in    
Sea Level Pressure  
Sea Level Pressure 30.00 in    
Wind  
Wind Speed 3 mph (ENE)    
Max Wind Speed 23 mph    
Max Gust Speed 29 mph    
Visibility 10 miles    
Events      
T = Trace of Precipitation, MM = Missing Value Source: NWS Daily Summary

Daily Weather History Graph

Daily Weather History Graph

Search for Another Location

Airport or City:

Trip Planner

Search our weather history database for the weather conditions in past years. The results will help you decide how hot, cold, wet, or windy it might be!

Date:

Astronomy

Mar. 28, 2013 Rise Set
Actual Time 6:32 AM PDT 7:04 PM PDT
Civil Twilight 6:05 AM PDT 7:31 PM PDT
Nautical Twilight 5:32 AM PDT 8:04 PM PDT
Astronomical Twilight 4:59 AM PDT 8:37 PM PDT
Moon 9:02 PM PDT (3/28) 7:02 AM PDT (3/28)
Length of Visible Light 13h 26m
Length of Day
12h 31m
Full, 98% of the Moon is Illuminated
Mar 28
Full
Apr 2
Last Quarter
Apr 10
New
Apr 18
First Quarter
Apr 25
Full

Hourly Weather History & Observations

Time (PDT) Temp. Windchill Dew Point Humidity Pressure Visibility Wind Dir Wind Speed Gust Speed Precip Events Conditions
12:56 AM 41.0 °F 39.0 °F 25.0 °F 53% 29.93 in 6.0 mi NE 3.5 mph - N/A   Haze
1:56 AM 33.1 °F - 25.0 °F 72% 29.95 in 10.0 mi Calm Calm - N/A   Clear
2:56 AM 34.0 °F - 26.1 °F 73% 29.96 in 10.0 mi Calm Calm - N/A   Mostly Cloudy
3:56 AM 39.0 °F 36.8 °F 25.0 °F 57% 29.94 in 10.0 mi East 3.5 mph - N/A   Overcast
4:56 AM 37.0 °F 32.4 °F 25.0 °F 62% 29.95 in 10.0 mi ENE 5.8 mph - N/A   Mostly Cloudy
5:56 AM 35.1 °F 32.2 °F 25.0 °F 67% 29.96 in 10.0 mi East 3.5 mph - N/A   Clear
6:56 AM 30.9 °F - 24.1 °F 76% 30.01 in 10.0 mi Calm Calm - N/A   Partly Cloudy
7:56 AM 36.0 °F - 27.0 °F 70% 30.03 in 10.0 mi Calm Calm - N/A   Clear
8:56 AM 43.0 °F - 28.0 °F 56% 30.03 in 10.0 mi Calm Calm - N/A   Mostly Cloudy
9:56 AM 46.9 °F - 28.0 °F 48% 30.04 in 10.0 mi Calm Calm - N/A   Overcast
10:56 AM 52.0 °F - 30.0 °F 43% 30.03 in 10.0 mi Calm Calm - N/A   Overcast
11:56 AM 55.0 °F - 28.9 °F 37% 30.00 in 10.0 mi NE 6.9 mph - N/A   Overcast
12:56 PM 60.1 °F - 28.0 °F 30% 29.97 in 10.0 mi NNE 5.8 mph - N/A   Clear
1:56 PM 63.0 °F - 28.0 °F 27% 29.97 in 10.0 mi Calm Calm - N/A   Scattered Clouds
2:56 PM 62.1 °F - 27.0 °F 26% 29.95 in 10.0 mi ESE 5.8 mph - N/A   Partly Cloudy
3:56 PM 61.0 °F - 28.9 °F 30% 29.94 in 10.0 mi Variable 3.5 mph - N/A   Mostly Cloudy
4:56 PM 61.0 °F - 30.9 °F 32% 29.96 in 10.0 mi SSE 6.9 mph - N/A   Mostly Cloudy
5:56 PM 55.9 °F - 34.0 °F 44% 29.99 in 10.0 mi NE 12.7 mph - N/A   Overcast
6:56 PM 54.0 °F - 35.1 °F 49% 30.03 in 10.0 mi NE 8.1 mph - N/A   Mostly Cloudy
7:56 PM 48.9 °F - 37.0 °F 64% 30.06 in 10.0 mi NNE 6.9 mph - N/A   Scattered Clouds
8:56 PM 46.9 °F - 37.0 °F 68% 30.07 in 10.0 mi East 3.5 mph - N/A   Clear
9:56 PM 43.0 °F - 35.1 °F 74% 30.09 in 10.0 mi Calm Calm - N/A   Clear
10:56 PM 39.0 °F - 32.0 °F 76% 30.09 in 10.0 mi Calm Calm - N/A   Clear
11:56 PM 35.1 °F - 30.0 °F 82% 30.11 in 10.0 mi Calm Calm - N/A   Clear